Year,Month,Day,Hour,Minute,Value (Times are PST for temperature in C)
2019,07,21,00,00,11.50
2019,07,21,00,01,11.40
2019,07,21,00,02,11.40
2019,07,21,00,03,11.40
2019,07,21,00,04,11.40
2019,07,21,00,05,11.40
2019,07,21,00,06,11.30
2019,07,21,00,07,11.30
2019,07,21,00,08,11.30
2019,07,21,00,09,11.30
2019,07,21,00,10,11.30
2019,07,21,00,11,11.30
2019,07,21,00,12,11.30
2019,07,21,00,13,11.30
2019,07,21,00,14,11.30
2019,07,21,00,15,11.30
2019,07,21,00,16,11.30
2019,07,21,00,17,11.30
2019,07,21,00,18,11.30
2019,07,21,00,19,11.30
2019,07,21,00,20,11.30
2019,07,21,00,21,11.30
2019,07,21,00,22,11.30
2019,07,21,00,23,11.20
2019,07,21,00,24,11.20
2019,07,21,00,25,11.20
2019,07,21,00,26,11.20
2019,07,21,00,27,11.20
2019,07,21,00,28,11.20
2019,07,21,00,29,11.20
2019,07,21,00,30,11.20
2019,07,21,00,31,11.20
2019,07,21,00,32,11.20
2019,07,21,00,33,11.20
2019,07,21,00,34,11.20
2019,07,21,00,35,11.20
2019,07,21,00,36,11.20
2019,07,21,00,37,11.10
2019,07,21,00,38,11.10
2019,07,21,00,39,11.10
2019,07,21,00,40,11.10
2019,07,21,00,41,11.10
2019,07,21,00,42,11.10
2019,07,21,00,43,11.10
2019,07,21,00,44,11.10
2019,07,21,00,45,11.10
2019,07,21,00,46,11.10
2019,07,21,00,47,11.10
2019,07,21,00,48,11.10
2019,07,21,00,49,11.10
2019,07,21,00,50,11.10
2019,07,21,00,51,11.00
2019,07,21,00,52,11.00
2019,07,21,00,53,11.00
2019,07,21,00,54,11.00
2019,07,21,00,55,11.00
2019,07,21,00,56,11.00
2019,07,21,00,57,10.90
2019,07,21,00,58,10.90
2019,07,21,00,59,10.90
2019,07,21,01,00,10.90
2019,07,21,01,01,10.90
2019,07,21,01,02,10.80
2019,07,21,01,03,10.80
2019,07,21,01,04,10.80
2019,07,21,01,05,10.80
2019,07,21,01,06,10.80
2019,07,21,01,07,10.80
2019,07,21,01,08,10.80
2019,07,21,01,09,10.70
2019,07,21,01,10,10.70
2019,07,21,01,11,10.70
2019,07,21,01,12,10.70
2019,07,21,01,13,10.70
2019,07,21,01,14,10.70
2019,07,21,01,15,10.70
2019,07,21,01,16,10.70
2019,07,21,01,17,10.70
2019,07,21,01,18,10.70
2019,07,21,01,19,10.70
2019,07,21,01,20,10.70
2019,07,21,01,21,10.70
2019,07,21,01,22,10.70
2019,07,21,01,23,10.70
2019,07,21,01,24,10.70
2019,07,21,01,25,10.60
2019,07,21,01,26,10.60
2019,07,21,01,27,10.60
2019,07,21,01,28,10.60
2019,07,21,01,29,10.60
2019,07,21,01,30,10.60
2019,07,21,01,31,10.60
2019,07,21,01,32,10.60
2019,07,21,01,33,10.60
2019,07,21,01,34,10.60
2019,07,21,01,35,10.60
2019,07,21,01,36,10.60
2019,07,21,01,37,10.60
2019,07,21,01,38,10.60
2019,07,21,01,39,10.60
2019,07,21,01,40,10.60
2019,07,21,01,41,10.60
2019,07,21,01,42,10.60
2019,07,21,01,43,10.60
2019,07,21,01,44,10.50
2019,07,21,01,45,10.50
2019,07,21,01,46,10.50
2019,07,21,01,47,10.50
2019,07,21,01,48,10.50
2019,07,21,01,49,10.50
2019,07,21,01,50,10.50
2019,07,21,01,51,10.50
2019,07,21,01,52,10.40
2019,07,21,01,53,10.40
2019,07,21,01,54,10.40
2019,07,21,01,55,10.40
2019,07,21,01,56,10.40
2019,07,21,01,57,10.40
2019,07,21,01,58,10.40
2019,07,21,01,59,10.40
2019,07,21,02,00,10.40
2019,07,21,02,01,10.40
2019,07,21,02,02,10.40
2019,07,21,02,03,10.40
2019,07,21,02,04,10.40
2019,07,21,02,05,10.30
2019,07,21,02,06,10.30
2019,07,21,02,07,10.30
2019,07,21,02,08,10.30
2019,07,21,02,09,10.30
2019,07,21,02,10,10.30
2019,07,21,02,11,10.30
2019,07,21,02,12,10.30
2019,07,21,02,13,10.30
2019,07,21,02,14,10.30
2019,07,21,02,15,10.30
2019,07,21,02,16,10.30
2019,07,21,02,17,10.30
2019,07,21,02,18,10.30
2019,07,21,02,19,10.30
2019,07,21,02,20,10.30
2019,07,21,02,21,10.30
2019,07,21,02,22,10.30
2019,07,21,02,23,10.30
2019,07,21,02,24,10.30
2019,07,21,02,25,10.30
2019,07,21,02,26,10.30
2019,07,21,02,27,10.20
2019,07,21,02,28,10.20
2019,07,21,02,29,10.20
2019,07,21,02,30,10.20
2019,07,21,02,31,10.20
2019,07,21,02,32,10.20
2019,07,21,02,33,10.20
2019,07,21,02,34,10.20
2019,07,21,02,35,10.20
2019,07,21,02,36,10.20
2019,07,21,02,37,10.20
2019,07,21,02,38,10.20
2019,07,21,02,39,10.20
2019,07,21,02,40,10.20
2019,07,21,02,41,10.20
2019,07,21,02,42,10.20
2019,07,21,02,43,10.20
2019,07,21,02,44,10.20
2019,07,21,02,45,10.20
2019,07,21,02,46,10.20
2019,07,21,02,47,10.20
2019,07,21,02,48,10.20
2019,07,21,02,49,10.20
2019,07,21,02,50,10.20
2019,07,21,02,51,10.20
2019,07,21,02,52,10.20
2019,07,21,02,53,10.20
2019,07,21,02,54,10.20
2019,07,21,02,55,10.20
2019,07,21,02,56,10.20
2019,07,21,02,57,10.20
2019,07,21,02,58,10.20
2019,07,21,02,59,10.20
2019,07,21,03,00,10.20
2019,07,21,03,01,10.20
2019,07,21,03,02,10.20
2019,07,21,03,03,10.20
2019,07,21,03,04,10.10
2019,07,21,03,05,10.10
2019,07,21,03,06,10.10
2019,07,21,03,07,10.10
2019,07,21,03,08,10.10
2019,07,21,03,09,10.10
2019,07,21,03,10,10.10
2019,07,21,03,11,10.10
2019,07,21,03,12,10.10
2019,07,21,03,13,10.10
2019,07,21,03,14,10.10
2019,07,21,03,15,10.10
2019,07,21,03,16,10.10
2019,07,21,03,17,10.10
2019,07,21,03,18,10.10
2019,07,21,03,19,10.10
2019,07,21,03,20,10.10
2019,07,21,03,21,10.10
2019,07,21,03,22,10.10
2019,07,21,03,23,10.10
2019,07,21,03,24,10.10
2019,07,21,03,25,10.10
2019,07,21,03,26,10.10
2019,07,21,03,27,10.10
2019,07,21,03,28,10.10
2019,07,21,03,29,10.10
2019,07,21,03,30,10.10
2019,07,21,03,31,10.10
2019,07,21,03,32,10.10
2019,07,21,03,33,10.10
2019,07,21,03,34,10.10
2019,07,21,03,35,10.10
2019,07,21,03,36,10.10
2019,07,21,03,37,10.10
2019,07,21,03,38,10.10
2019,07,21,03,39,10.10
2019,07,21,03,40,10.10
2019,07,21,03,41,10.10
2019,07,21,03,42,10.10
2019,07,21,03,43,10.10
2019,07,21,03,44,10.10
2019,07,21,03,45,10.00
2019,07,21,03,46,10.00
2019,07,21,03,47,10.00
2019,07,21,03,48,10.00
2019,07,21,03,49,10.00
2019,07,21,03,50,10.00
2019,07,21,03,51,10.00
2019,07,21,03,52,10.00
2019,07,21,03,53,10.00
2019,07,21,03,54,9.90
2019,07,21,03,55,9.90
2019,07,21,03,56,9.90
2019,07,21,03,57,9.90
2019,07,21,03,58,9.90
2019,07,21,03,59,9.90
2019,07,21,04,00,9.90
2019,07,21,04,01,9.90
2019,07,21,04,02,9.90
2019,07,21,04,03,9.90
2019,07,21,04,04,9.90
2019,07,21,04,05,9.80
2019,07,21,04,06,9.80
2019,07,21,04,07,9.80
2019,07,21,04,08,9.80
2019,07,21,04,09,9.80
2019,07,21,04,10,9.80
2019,07,21,04,11,9.80
2019,07,21,04,12,9.80
2019,07,21,04,13,9.80
2019,07,21,04,14,9.80
2019,07,21,04,15,9.80
2019,07,21,04,16,9.80
2019,07,21,04,17,9.80
2019,07,21,04,18,9.80
2019,07,21,04,19,9.80
2019,07,21,04,20,9.80
2019,07,21,04,21,9.80
2019,07,21,04,22,9.70
2019,07,21,04,23,9.70
2019,07,21,04,24,9.70
2019,07,21,04,25,9.70
2019,07,21,04,26,9.70
2019,07,21,04,27,9.70
2019,07,21,04,28,9.70
2019,07,21,04,29,9.70
2019,07,21,04,30,9.70
2019,07,21,04,31,9.70
2019,07,21,04,32,9.70
2019,07,21,04,33,9.70
2019,07,21,04,34,9.70
2019,07,21,04,35,9.70
2019,07,21,04,36,9.70
2019,07,21,04,37,9.70
2019,07,21,04,38,9.70
2019,07,21,04,39,9.70
2019,07,21,04,40,9.60
2019,07,21,04,41,9.60
2019,07,21,04,42,9.60
2019,07,21,04,43,9.60
2019,07,21,04,44,9.60
2019,07,21,04,45,9.60
2019,07,21,04,46,9.60
2019,07,21,04,47,9.60
2019,07,21,04,48,9.60
2019,07,21,04,49,9.60
2019,07,21,04,50,9.60
2019,07,21,04,51,9.60
2019,07,21,04,52,9.60
2019,07,21,04,53,9.60
2019,07,21,04,54,9.60
2019,07,21,04,55,9.60
2019,07,21,04,56,9.60
2019,07,21,04,57,9.60
2019,07,21,04,58,9.60
2019,07,21,04,59,9.60
2019,07,21,05,00,9.60
2019,07,21,05,01,9.60
2019,07,21,05,02,9.60
2019,07,21,05,03,9.60
2019,07,21,05,04,9.60
2019,07,21,05,05,9.60
2019,07,21,05,06,9.60
2019,07,21,05,07,9.60
2019,07,21,05,08,9.60
2019,07,21,05,09,9.60
2019,07,21,05,10,9.60
2019,07,21,05,11,9.60
2019,07,21,05,12,9.60
2019,07,21,05,13,9.60
2019,07,21,05,14,9.60
2019,07,21,05,15,9.60
2019,07,21,05,16,9.60
2019,07,21,05,17,9.60
2019,07,21,05,18,9.60
2019,07,21,05,19,9.60
2019,07,21,05,20,9.60
2019,07,21,05,21,9.60
2019,07,21,05,22,9.60
2019,07,21,05,23,9.60
2019,07,21,05,24,9.60
2019,07,21,05,25,9.60
2019,07,21,05,26,9.60
2019,07,21,05,27,9.60
2019,07,21,05,28,9.60
2019,07,21,05,29,9.60
2019,07,21,05,30,9.60
2019,07,21,05,31,9.60
2019,07,21,05,32,9.60
2019,07,21,05,33,9.60
2019,07,21,05,34,9.60
2019,07,21,05,35,9.60
2019,07,21,05,36,9.60
2019,07,21,05,37,9.60
2019,07,21,05,38,9.60
2019,07,21,05,39,9.60
2019,07,21,05,40,9.60
2019,07,21,05,41,9.60
2019,07,21,05,42,9.60
2019,07,21,05,43,9.60
2019,07,21,05,44,9.60
2019,07,21,05,45,9.50
2019,07,21,05,46,9.50
2019,07,21,05,47,9.50
2019,07,21,05,48,9.50
2019,07,21,05,49,9.50
2019,07,21,05,50,9.50
2019,07,21,05,51,9.50
2019,07,21,05,52,9.50
2019,07,21,05,53,9.50
2019,07,21,05,54,9.50
2019,07,21,05,55,9.50
2019,07,21,05,56,9.50
2019,07,21,05,57,9.50
2019,07,21,05,58,9.50
2019,07,21,05,59,9.50
2019,07,21,06,00,9.50
2019,07,21,06,01,9.50
2019,07,21,06,02,9.50
2019,07,21,06,03,9.40
2019,07,21,06,04,9.40
2019,07,21,06,05,9.40
2019,07,21,06,06,9.40
2019,07,21,06,07,9.40
2019,07,21,06,08,9.40
2019,07,21,06,09,9.40
2019,07,21,06,10,9.40
2019,07,21,06,11,9.40
2019,07,21,06,12,9.40
2019,07,21,06,13,9.40
2019,07,21,06,14,9.40
2019,07,21,06,15,9.40
2019,07,21,06,16,9.40
2019,07,21,06,17,9.40
2019,07,21,06,18,9.50
2019,07,21,06,19,9.50
2019,07,21,06,20,9.50
2019,07,21,06,21,9.50
2019,07,21,06,22,9.50
2019,07,21,06,23,9.50
2019,07,21,06,24,9.50
2019,07,21,06,25,9.60
2019,07,21,06,26,9.60
2019,07,21,06,27,9.60
2019,07,21,06,28,9.60
2019,07,21,06,29,9.60
2019,07,21,06,30,9.60
2019,07,21,06,31,9.60
2019,07,21,06,32,9.60
2019,07,21,06,33,9.60
2019,07,21,06,34,9.60
2019,07,21,06,35,9.60
2019,07,21,06,36,9.60
2019,07,21,06,37,9.60
2019,07,21,06,38,9.60
2019,07,21,06,39,9.60
2019,07,21,06,40,9.60
2019,07,21,06,41,9.70
2019,07,21,06,42,9.70
2019,07,21,06,43,9.70
2019,07,21,06,44,9.70
2019,07,21,06,45,9.70
2019,07,21,06,46,9.70
2019,07,21,06,47,9.80
2019,07,21,06,48,9.80
2019,07,21,06,49,9.80
2019,07,21,06,50,9.80
2019,07,21,06,51,9.80
2019,07,21,06,52,9.90
2019,07,21,06,53,9.90
2019,07,21,06,54,9.90
2019,07,21,06,55,9.90
2019,07,21,06,56,9.90
2019,07,21,06,57,10.00
2019,07,21,06,58,10.00
2019,07,21,06,59,10.00
2019,07,21,07,00,10.10
2019,07,21,07,01,10.10
2019,07,21,07,02,10.10
2019,07,21,07,03,10.20
2019,07,21,07,04,10.20
2019,07,21,07,05,10.20
2019,07,21,07,06,10.20
2019,07,21,07,07,10.30
2019,07,21,07,08,10.30
2019,07,21,07,09,10.30
2019,07,21,07,10,10.40
2019,07,21,07,11,10.40
2019,07,21,07,12,10.40
2019,07,21,07,13,10.50
2019,07,21,07,14,10.50
2019,07,21,07,15,10.60
2019,07,21,07,16,10.60
2019,07,21,07,17,10.60
2019,07,21,07,18,10.70
2019,07,21,07,19,10.70
2019,07,21,07,20,10.80
2019,07,21,07,21,10.80
2019,07,21,07,22,10.80
2019,07,21,07,23,10.90
2019,07,21,07,24,10.90
2019,07,21,07,25,11.00
2019,07,21,07,26,11.00
2019,07,21,07,27,11.10
2019,07,21,07,28,11.20
2019,07,21,07,29,11.30
2019,07,21,07,30,11.40
2019,07,21,07,31,11.50
2019,07,21,07,32,11.60
2019,07,21,07,33,11.70
2019,07,21,07,34,11.90
2019,07,21,07,35,12.00
2019,07,21,07,36,12.10
2019,07,21,07,37,12.30
2019,07,21,07,38,12.40
2019,07,21,07,39,12.60
2019,07,21,07,40,12.70
2019,07,21,07,41,12.80
2019,07,21,07,42,13.00
2019,07,21,07,43,13.20
2019,07,21,07,44,13.40
2019,07,21,07,45,13.60
2019,07,21,07,46,13.70
2019,07,21,07,47,13.90
2019,07,21,07,48,14.10
2019,07,21,07,49,14.30
2019,07,21,07,50,14.40
2019,07,21,07,51,14.60
2019,07,21,07,52,14.80
2019,07,21,07,53,15.00
2019,07,21,07,54,15.00
2019,07,21,07,55,15.20
2019,07,21,07,56,15.40
2019,07,21,07,57,15.60
2019,07,21,07,58,15.70
2019,07,21,07,59,15.80
2019,07,21,08,00,15.90
2019,07,21,08,01,16.10
2019,07,21,08,02,16.20
2019,07,21,08,03,16.40
2019,07,21,08,04,16.50
2019,07,21,08,05,16.70
2019,07,21,08,06,16.80
2019,07,21,08,07,17.00
2019,07,21,08,08,17.10
2019,07,21,08,09,17.30
2019,07,21,08,10,17.50
2019,07,21,08,11,17.60
2019,07,21,08,12,17.70
2019,07,21,08,13,17.80
2019,07,21,08,14,17.90
2019,07,21,08,15,18.00
2019,07,21,08,16,18.10
2019,07,21,08,17,18.20
2019,07,21,08,18,18.30
2019,07,21,08,19,18.30
2019,07,21,08,20,18.40
2019,07,21,08,21,18.50
2019,07,21,08,22,18.60
2019,07,21,08,23,18.70
2019,07,21,08,24,18.80
2019,07,21,08,25,18.90
2019,07,21,08,26,19.00
2019,07,21,08,27,19.10
2019,07,21,08,28,19.20
2019,07,21,08,29,19.30
2019,07,21,08,30,19.30
2019,07,21,08,31,19.40
2019,07,21,08,32,19.50
2019,07,21,08,33,19.50
2019,07,21,08,34,19.60
2019,07,21,08,35,19.70
2019,07,21,08,36,19.70
2019,07,21,08,37,19.80
2019,07,21,08,38,19.90
2019,07,21,08,39,20.00
2019,07,21,08,40,20.00
2019,07,21,08,41,20.10
2019,07,21,08,42,20.20
2019,07,21,08,43,20.30
2019,07,21,08,44,20.40
2019,07,21,08,45,20.50
2019,07,21,08,46,20.60
2019,07,21,08,47,20.70
2019,07,21,08,48,20.70
2019,07,21,08,49,20.70
2019,07,21,08,50,20.70
2019,07,21,08,51,20.70
2019,07,21,08,52,20.70
2019,07,21,08,53,20.80
2019,07,21,08,54,20.80
2019,07,21,08,55,20.80
2019,07,21,08,56,20.90
2019,07,21,08,57,20.90
2019,07,21,08,58,21.00
2019,07,21,08,59,21.00
2019,07,21,09,00,21.10
2019,07,21,09,01,21.20
2019,07,21,09,02,21.30
2019,07,21,09,03,21.30
2019,07,21,09,04,21.40
2019,07,21,09,05,21.40
2019,07,21,09,06,21.50
2019,07,21,09,07,21.50
2019,07,21,09,08,21.40
2019,07,21,09,09,21.50
2019,07,21,09,10,21.60
2019,07,21,09,11,21.60
2019,07,21,09,12,21.60
2019,07,21,09,13,21.70
2019,07,21,09,14,21.70
2019,07,21,09,15,21.70
2019,07,21,09,16,21.80
2019,07,21,09,17,21.80
2019,07,21,09,18,21.80
2019,07,21,09,19,21.90
2019,07,21,09,20,21.90
2019,07,21,09,21,22.00
2019,07,21,09,22,22.10
2019,07,21,09,23,22.10
2019,07,21,09,24,22.10
2019,07,21,09,25,22.10
2019,07,21,09,26,22.10
2019,07,21,09,27,22.10
2019,07,21,09,28,22.10
2019,07,21,09,29,22.10
2019,07,21,09,30,22.10
2019,07,21,09,31,22.10
2019,07,21,09,32,22.10
2019,07,21,09,33,22.10
2019,07,21,09,34,22.10
2019,07,21,09,35,22.20
2019,07,21,09,36,22.20
2019,07,21,09,37,22.20
2019,07,21,09,38,22.20
2019,07,21,09,39,22.30
2019,07,21,09,40,22.40
2019,07,21,09,41,22.40
2019,07,21,09,42,22.40
2019,07,21,09,43,22.40
2019,07,21,09,44,22.50
2019,07,21,09,45,22.50
2019,07,21,09,46,22.60
2019,07,21,09,47,22.60
2019,07,21,09,48,22.60
2019,07,21,09,49,22.60
2019,07,21,09,50,22.60
2019,07,21,09,51,22.70
2019,07,21,09,52,22.80
2019,07,21,09,53,22.80
2019,07,21,09,54,22.80
2019,07,21,09,55,22.80
2019,07,21,09,56,22.70
2019,07,21,09,57,22.70
2019,07,21,09,58,22.70
2019,07,21,09,59,22.70
2019,07,21,10,00,22.60
2019,07,21,10,01,22.60
2019,07,21,10,02,22.50
2019,07,21,10,03,22.50
2019,07,21,10,04,22.40
2019,07,21,10,05,22.30
2019,07,21,10,06,22.20
2019,07,21,10,07,22.00
2019,07,21,10,08,21.90
2019,07,21,10,09,21.80
2019,07,21,10,10,21.70
2019,07,21,10,11,21.60
2019,07,21,10,12,21.50
2019,07,21,10,13,21.50
2019,07,21,10,14,21.40
2019,07,21,10,15,21.50
2019,07,21,10,16,21.50
2019,07,21,10,17,21.50
2019,07,21,10,18,21.50
2019,07,21,10,19,21.60
2019,07,21,10,20,21.60
2019,07,21,10,21,21.60
2019,07,21,10,22,21.70
2019,07,21,10,23,21.70
2019,07,21,10,24,21.70
2019,07,21,10,25,21.80
2019,07,21,10,26,21.80
2019,07,21,10,27,21.80
2019,07,21,10,28,21.80
2019,07,21,10,29,21.80
2019,07,21,10,30,21.80
2019,07,21,10,31,21.80
2019,07,21,10,32,21.80
2019,07,21,10,33,21.70
2019,07,21,10,34,21.70
2019,07,21,10,35,21.70
2019,07,21,10,36,21.80
2019,07,21,10,37,21.80
2019,07,21,10,38,21.80
2019,07,21,10,39,21.80
2019,07,21,10,40,21.90
2019,07,21,10,41,22.00
2019,07,21,10,42,22.00
2019,07,21,10,43,22.10
2019,07,21,10,44,22.10
2019,07,21,10,45,22.20
2019,07,21,10,46,22.20
2019,07,21,10,47,22.30
2019,07,21,10,48,22.30
2019,07,21,10,49,22.40
2019,07,21,10,50,22.40
2019,07,21,10,51,22.40
2019,07,21,10,52,22.40
2019,07,21,10,53,22.50
2019,07,21,10,54,22.50
2019,07,21,10,55,22.60
2019,07,21,10,56,22.60
2019,07,21,10,57,22.60
2019,07,21,10,58,22.60
2019,07,21,10,59,22.70
2019,07,21,11,00,22.70
2019,07,21,11,01,22.70
2019,07,21,11,02,22.80
2019,07,21,11,03,22.90
2019,07,21,11,04,23.00
2019,07,21,11,05,23.10
2019,07,21,11,06,23.20
2019,07,21,11,07,23.20
2019,07,21,11,08,23.10
2019,07,21,11,09,23.10
2019,07,21,11,10,23.00
2019,07,21,11,11,22.90
2019,07,21,11,12,22.90
2019,07,21,11,13,23.00
2019,07,21,11,14,23.10
2019,07,21,11,15,23.20
2019,07,21,11,16,23.30
2019,07,21,11,17,23.40
2019,07,21,11,18,23.40
2019,07,21,11,19,23.50
2019,07,21,11,20,23.70
2019,07,21,11,21,23.80
2019,07,21,11,22,23.90
2019,07,21,11,23,23.90
2019,07,21,11,24,24.00
2019,07,21,11,25,24.00
2019,07,21,11,26,24.00
2019,07,21,11,27,23.90
2019,07,21,11,28,23.80
2019,07,21,11,29,23.80
2019,07,21,11,30,23.70
2019,07,21,11,31,23.60
2019,07,21,11,32,23.60
2019,07,21,11,33,23.60
2019,07,21,11,34,23.60
2019,07,21,11,35,23.70
2019,07,21,11,36,23.80
2019,07,21,11,37,23.80
2019,07,21,11,38,23.90
2019,07,21,11,39,23.90
2019,07,21,11,40,24.00
2019,07,21,11,41,24.10
2019,07,21,11,42,24.10
2019,07,21,11,43,24.20
2019,07,21,11,44,24.20
2019,07,21,11,45,24.20
2019,07,21,11,46,24.10
2019,07,21,11,47,24.00
2019,07,21,11,48,24.00
2019,07,21,11,49,23.90
2019,07,21,11,50,23.90
2019,07,21,11,51,23.90
2019,07,21,11,52,23.80
2019,07,21,11,53,23.80
2019,07,21,11,54,23.70
2019,07,21,11,55,23.60
2019,07,21,11,56,23.60
2019,07,21,11,57,23.60
2019,07,21,11,58,23.60
2019,07,21,11,59,23.50
2019,07,21,12,00,23.50
2019,07,21,12,01,23.40
2019,07,21,12,02,23.40
2019,07,21,12,03,23.40
2019,07,21,12,04,23.50
2019,07,21,12,05,23.50
2019,07,21,12,06,23.60
2019,07,21,12,07,23.60
2019,07,21,12,08,23.70
2019,07,21,12,09,23.80
2019,07,21,12,10,23.90
2019,07,21,12,11,24.00
2019,07,21,12,12,24.10
2019,07,21,12,13,24.20
2019,07,21,12,14,24.40
2019,07,21,12,15,24.50
2019,07,21,12,16,24.70
2019,07,21,12,17,24.80
2019,07,21,12,18,25.00
2019,07,21,12,19,25.10
2019,07,21,12,20,25.20
2019,07,21,12,21,25.20
2019,07,21,12,22,25.20
2019,07,21,12,23,25.10
2019,07,21,12,24,25.10
2019,07,21,12,25,25.00
2019,07,21,12,26,25.10
2019,07,21,12,27,25.10
2019,07,21,12,28,25.20
2019,07,21,12,29,25.40
2019,07,21,12,30,25.60
2019,07,21,12,31,25.70
2019,07,21,12,32,25.90
2019,07,21,12,33,26.00
2019,07,21,12,34,26.00
2019,07,21,12,35,26.10
2019,07,21,12,36,26.10
2019,07,21,12,37,26.00
2019,07,21,12,38,25.90
2019,07,21,12,39,25.80
2019,07,21,12,40,25.60
2019,07,21,12,41,25.40
2019,07,21,12,42,25.30
2019,07,21,12,43,25.30
2019,07,21,12,44,25.30
2019,07,21,12,45,25.30
2019,07,21,12,46,25.30
2019,07,21,12,47,25.30
2019,07,21,12,48,25.20
2019,07,21,12,49,25.20
2019,07,21,12,50,25.20
2019,07,21,12,51,25.20
2019,07,21,12,52,25.10
2019,07,21,12,53,25.00
2019,07,21,12,54,25.00
2019,07,21,12,55,25.00
2019,07,21,12,56,25.00
2019,07,21,12,57,25.10
2019,07,21,12,58,25.30
2019,07,21,12,59,25.30
2019,07,21,13,00,25.40
2019,07,21,13,01,25.40
2019,07,21,13,02,25.40
2019,07,21,13,03,25.50
2019,07,21,13,04,25.60
2019,07,21,13,05,25.70
2019,07,21,13,06,25.90
2019,07,21,13,07,25.90
2019,07,21,13,08,25.90
2019,07,21,13,09,25.90
2019,07,21,13,10,25.90
2019,07,21,13,11,26.00
2019,07,21,13,12,26.10
2019,07,21,13,13,26.10
2019,07,21,13,14,26.00
2019,07,21,13,15,25.90
2019,07,21,13,16,25.90
2019,07,21,13,17,25.90
2019,07,21,13,18,26.00
2019,07,21,13,19,26.10
2019,07,21,13,20,26.10
2019,07,21,13,21,26.10
2019,07,21,13,22,26.10
2019,07,21,13,23,26.00
2019,07,21,13,24,25.90
2019,07,21,13,25,26.00
2019,07,21,13,26,26.00
2019,07,21,13,27,26.10
2019,07,21,13,28,26.10
2019,07,21,13,29,26.20
2019,07,21,13,30,26.20
2019,07,21,13,31,26.30
2019,07,21,13,32,26.20
2019,07,21,13,33,26.20
2019,07,21,13,34,26.20
2019,07,21,13,35,26.20
2019,07,21,13,36,26.20
2019,07,21,13,37,26.20
2019,07,21,13,38,26.20
2019,07,21,13,39,26.10
2019,07,21,13,40,26.10
2019,07,21,13,41,26.20
2019,07,21,13,42,26.20
2019,07,21,13,43,26.30
2019,07,21,13,44,26.40
2019,07,21,13,45,26.40
2019,07,21,13,46,26.30
2019,07,21,13,47,26.30
2019,07,21,13,48,26.20
2019,07,21,13,49,26.20
2019,07,21,13,50,26.20
2019,07,21,13,51,26.30
2019,07,21,13,52,26.20
2019,07,21,13,53,26.10
2019,07,21,13,54,26.10
2019,07,21,13,55,26.20
2019,07,21,13,56,26.20
2019,07,21,13,57,26.20
2019,07,21,13,58,26.20
2019,07,21,13,59,26.20
2019,07,21,14,00,26.30
2019,07,21,14,01,26.30
2019,07,21,14,02,26.40
2019,07,21,14,03,26.40
2019,07,21,14,04,26.30
2019,07,21,14,05,26.30
2019,07,21,14,06,26.30
2019,07,21,14,07,26.30
2019,07,21,14,08,26.30
2019,07,21,14,09,26.30
2019,07,21,14,10,26.30
2019,07,21,14,11,26.30
2019,07,21,14,12,26.40
2019,07,21,14,13,26.30
2019,07,21,14,14,26.30
2019,07,21,14,15,26.30
2019,07,21,14,16,26.30
2019,07,21,14,17,26.30
2019,07,21,14,18,26.30
2019,07,21,14,19,26.30
2019,07,21,14,20,26.30
2019,07,21,14,21,26.40
2019,07,21,14,22,26.40
2019,07,21,14,23,26.30
2019,07,21,14,24,26.30
2019,07,21,14,25,26.30
2019,07,21,14,26,26.30
2019,07,21,14,27,26.20
2019,07,21,14,28,26.20
2019,07,21,14,29,26.20
2019,07,21,14,30,26.20
2019,07,21,14,31,26.20
2019,07,21,14,32,26.20
2019,07,21,14,33,26.20
2019,07,21,14,34,26.20
2019,07,21,14,35,26.30
2019,07,21,14,36,26.30
2019,07,21,14,37,26.40
2019,07,21,14,38,26.50
2019,07,21,14,39,26.60
2019,07,21,14,40,26.60
2019,07,21,14,41,26.60
2019,07,21,14,42,26.70
2019,07,21,14,43,26.70
2019,07,21,14,44,26.70
2019,07,21,14,45,26.80
2019,07,21,14,46,26.80
2019,07,21,14,47,26.80
2019,07,21,14,48,26.80
2019,07,21,14,49,26.80
2019,07,21,14,50,26.80
2019,07,21,14,51,26.80
2019,07,21,14,52,26.90
2019,07,21,14,53,27.00
2019,07,21,14,54,27.10
2019,07,21,14,55,27.20
2019,07,21,14,56,27.30
2019,07,21,14,57,27.30
2019,07,21,14,58,27.30
2019,07,21,14,59,27.40
2019,07,21,15,00,27.40
2019,07,21,15,01,27.40
2019,07,21,15,02,27.40
2019,07,21,15,03,27.30
2019,07,21,15,04,27.30
2019,07,21,15,05,27.30
2019,07,21,15,06,27.30
2019,07,21,15,07,27.20
2019,07,21,15,08,27.20
2019,07,21,15,09,27.20
2019,07,21,15,10,27.20
2019,07,21,15,11,27.10
2019,07,21,15,12,27.10
2019,07,21,15,13,27.00
2019,07,21,15,14,26.90
2019,07,21,15,15,26.80
2019,07,21,15,16,26.70
2019,07,21,15,17,26.70
2019,07,21,15,18,26.70
2019,07,21,15,19,26.70
2019,07,21,15,20,26.70
2019,07,21,15,21,26.70
2019,07,21,15,22,26.70
2019,07,21,15,23,26.70
2019,07,21,15,24,26.70
2019,07,21,15,25,26.70
2019,07,21,15,26,26.60
2019,07,21,15,27,26.60
2019,07,21,15,28,26.60
2019,07,21,15,29,26.60
2019,07,21,15,30,26.50
2019,07,21,15,31,26.50
2019,07,21,15,32,26.50
2019,07,21,15,33,26.50
2019,07,21,15,34,26.50
2019,07,21,15,35,26.60
2019,07,21,15,36,26.60
2019,07,21,15,37,26.70
2019,07,21,15,38,26.80
2019,07,21,15,39,26.80
2019,07,21,15,40,26.80
2019,07,21,15,41,26.70
2019,07,21,15,42,26.60
2019,07,21,15,43,26.60
2019,07,21,15,44,26.50
2019,07,21,15,45,26.50
2019,07,21,15,46,26.50
2019,07,21,15,47,26.40
2019,07,21,15,48,26.30
2019,07,21,15,49,26.30
2019,07,21,15,50,26.30
2019,07,21,15,51,26.30
2019,07,21,15,52,26.30
2019,07,21,15,53,26.30
2019,07,21,15,54,26.20
2019,07,21,15,55,26.20
2019,07,21,15,56,26.20
2019,07,21,15,57,26.20
2019,07,21,15,58,26.10
2019,07,21,15,59,26.10
2019,07,21,16,00,26.10
2019,07,21,16,01,26.20
2019,07,21,16,02,26.20
2019,07,21,16,03,26.30
2019,07,21,16,04,26.30
2019,07,21,16,05,26.30
2019,07,21,16,06,26.40
2019,07,21,16,07,26.40
2019,07,21,16,08,26.40
2019,07,21,16,09,26.40
2019,07,21,16,10,26.40
2019,07,21,16,11,26.50
2019,07,21,16,12,26.50
2019,07,21,16,13,26.50
2019,07,21,16,14,26.50
2019,07,21,16,15,26.50
2019,07,21,16,16,26.50
2019,07,21,16,17,26.40
2019,07,21,16,18,26.40
2019,07,21,16,19,26.40
2019,07,21,16,20,26.40
2019,07,21,16,21,26.40
2019,07,21,16,22,26.40
2019,07,21,16,23,26.40
2019,07,21,16,24,26.40
2019,07,21,16,25,26.40
2019,07,21,16,26,26.40
2019,07,21,16,27,26.50
2019,07,21,16,28,26.50
2019,07,21,16,29,26.50
2019,07,21,16,30,26.50
2019,07,21,16,31,26.50
2019,07,21,16,32,26.50
2019,07,21,16,33,26.50
2019,07,21,16,34,26.50
2019,07,21,16,35,26.60
2019,07,21,16,36,26.60
2019,07,21,16,37,26.60
2019,07,21,16,38,26.50
2019,07,21,16,39,26.50
2019,07,21,16,40,26.50
2019,07,21,16,41,26.50
2019,07,21,16,42,26.50
2019,07,21,16,43,26.50
2019,07,21,16,44,26.50
2019,07,21,16,45,26.60
2019,07,21,16,46,26.60
2019,07,21,16,47,26.60
2019,07,21,16,48,26.60
2019,07,21,16,49,26.60
2019,07,21,16,50,26.60
2019,07,21,16,51,26.60
2019,07,21,16,52,26.60
2019,07,21,16,53,26.60
2019,07,21,16,54,26.60
2019,07,21,16,55,26.60
2019,07,21,16,56,26.60
2019,07,21,16,57,26.60
2019,07,21,16,58,26.60
2019,07,21,16,59,26.50
2019,07,21,17,00,26.50
2019,07,21,17,01,26.40
2019,07,21,17,02,26.40
2019,07,21,17,03,26.40
2019,07,21,17,04,26.40
2019,07,21,17,05,26.40
2019,07,21,17,06,26.30
2019,07,21,17,07,26.30
2019,07,21,17,08,26.30
2019,07,21,17,09,26.30
2019,07,21,17,10,26.30
2019,07,21,17,11,26.30
2019,07,21,17,12,26.30
2019,07,21,17,13,26.30
2019,07,21,17,14,26.30
2019,07,21,17,15,26.30
2019,07,21,17,16,26.30
2019,07,21,17,17,26.30
2019,07,21,17,18,26.20
2019,07,21,17,19,26.20
2019,07,21,17,20,26.20
2019,07,21,17,21,26.20
2019,07,21,17,22,26.20
2019,07,21,17,23,26.20
2019,07,21,17,24,26.10
2019,07,21,17,25,26.10
2019,07,21,17,26,26.10
2019,07,21,17,27,26.10